User: anonymous   Login
Location: Unspecified
(0.0000°N, 0.0000°E)
Time: 16:38:54
(UTC+00:00)
Language:

GONETS M 08 (M18) - Orbit

View from above orbital plane
View from above orbital plane
View from above satellite
View from above satellite

Ground track
Ground track

The orbit data is extracted from the following two-line orbital elements,

1 40061U 14036A   17204.89673381 +.00000010 +00000-0 +00000-0 0  9995
2 40061 082.5095 166.2907 0030500 040.8060 319.5299 12.42871706138681
Epoch (UTC): 23 July 2017 21:31:17
Eccentricity: 0.0030500
inclination: 82.5095°
perigee height: 1470 km
apogee height: 1518 km
right ascension of ascending node: 166.2907°
argument of perigee: 40.8060°
revolutions per day: 12.42871706
mean anomaly at epoch: 319.5299°
orbit number at epoch: 13868

The dashed part of the orbit path shows where the satellite is in the earth's shadow,  

DLR